User: anonymous   Login
Location: Unspecified
(0.0000°N, 0.0000°E)
Time: 16:17:36
(UTC+00:00)
Language:

ISS - Orbit

View from above orbital plane
View from above orbital plane
View from above satellite
View from above satellite

Ground track
Ground track

The orbit data is extracted from the following two-line orbital elements,

1 25544U 98067A   15248.40940233  .00005202  00000-0  82208-4 0  9998
2 25544  51.6446  43.4642 0001978 179.8935 269.6954 15.55316701960525
Epoch (UTC): 05 September 2015 09:49:32
Eccentricity: 0.0001978
inclination: 51.6446°
perigee height: 400 km
apogee height: 402 km
right ascension of ascending node: 43.4642°
argument of perigee: 179.8935°
revolutions per day: 15.55316701
mean anomaly at epoch: 269.6954°
orbit number at epoch: 96052

The dashed part of the orbit path shows where the satellite is in the earth's shadow,  

DLR